Voltar ao catálogo

KUIPER-00152

AtivoComunicaçõesLEO
NORAD 65772·PAYLOAD·🇺🇸 United States

Lançado Sep 25, 2025 de Cape Canaveral Space Force Station

Loading…

Próximas Passagens (próximas 24 horas)

TLE

AtualizadoSource: CelesTrak SupGP

Época: Sep 14, 2026, 22:25 UTC

1 65772C 25217L   26257.93444444  .00003037  00000+0  39768-3 0  2577
2 65772  51.8993 273.7641 0000513  48.0307  53.8573 14.79914551    13

Acompanhe KUIPER-00152 em tempo real com AllMySat

Download on the App Store